GFSFLT2_con_mucape_219.txt.gz
CAPE
443 477 520 504 655 607 517 615 712 759 792 888 952 936 1101 1300 1344 1397 1495 1294 914 727 641 491 407 395 271 273 277 313 397 340
412 445 432 374 388 429 357 423 503 544 566 624 510 537 798 1049 1054 1137 1122 990 739 597 433 334 186 175 128 208 250 124 123 443
304 369 363 293 311 313 262 306 340 353 401 390 251 271 564 843 862 869 787 633 533 488 325 152 90 102 111 139 180 113 132 495
176 242 263 225 269 293 189 192 186 162 175 143 49 106 351 562 674 685 534 357 300 283 180 91 78 86 49 5 114 119 236 303
92 139 148 131 284 199 145 121 102 82 60 32 2 27 222 396 438 501 344 169 80 78 50 19 11 42 2 0 49 357 460 387
19 82 109 101 238 145 98 57 51 37 13 0 0 0 69 147 213 293 187 34 0 0 0 0 0 0 0 47 187 220 505 430
15 19 61 82 160 105 66 58 31 8 0 0 0 0 0 12 64 103 74 15 0 0 0 0 0 0 0 0 263 386 441 482
124 67 19 38 78 73 53 36 17 14 0 0 0 0 0 0 0 27 25 0 0 0 0 0 0 0 0 0 139 329 400 429
161 187 173 26 0 11 7 11 9 0 0 0 0 0 0 0 0 0 6 0 0 0 0 0 0 0 0 0 20 297 320 310
450 331 350 229 30 1 0 0 0 0 0 0 0 0 0 0 0 0 0 0 0 0 0 0 0 0 0 7 3 257 342 274
747 606 493 399 226 78 4 0 0 0 0 0 0 0 0 0 0 0 0 0 0 0 15 0 0 0 0 9 61 168 318 290
861 740 701 559 475 252 89 8 0 0 0 0 0 0 0 0 0 0 0 0 0 0 41 16 4 0 19 74 125 211 315 323
813 740 619 685 727 602 247 99 9 0 0 0 0 0 0 0 0 0 0 0 25 76 125 98 86 96 62 130 170 193 301 321
707 754 642 636 769 821 556 257 120 32 9 0 1 19 231 87 0 0 0 16 149 199 329 226 170 140 143 232 299 237 313 331
610 894 844 726 715 795 767 594 458 248 173 194 286 334 466 511 216 177 264 9 144 326 504 259 259 205 202 270 292 299 166 133
454 784 956 912 885 855 850 811 666 631 460 420 637 725 663 701 758 626 648 497 221 544 796 870 473 368 435 336 349 347 284 191
169 646 917 1028 1138 1117 1028 977 866 781 764 818 925 1077 1069 992 968 928 907 894 780 558 748 977 897 507 506 308 299 313 361 267
7 508 722 1090 1171 1273 1271 1178 1137 1077 984 978 940 1117 1275 1247 1132 1072 952 829 865 961 939 916 1054 670 629 408 342 327 302 261
0 301 515 984 1187 1282 1336 1318 1237 1203 1178 1128 1061 1005 1067 1212 1163 961 874 783 850 890 1026 982 874 742 540 489 377 293 298 313
0 148 354 707 1051 1218 1269 1316 1326 1304 1278 1256 1261 1279 1343 1327 1185 864 756 813 727 728 777 889 990 907 853 925 700 450 460 208

GFSFLT2_con_mucape_225.txt.gz
CAPE
369 358 395 365 429 272 244 364 624 867 1014 1162 1175 909 812 1056 1216 1294 1155 923 783 664 604 541 476 235 28 22 84 161 530 440
437 499 424 477 546 136 100 178 341 556 745 881 783 654 701 778 881 1043 895 661 555 539 428 322 301 73 10 14 35 1 618 676
376 432 451 522 479 299 73 96 139 274 471 585 609 681 771 672 406 707 522 292 328 355 215 135 75 111 5 0 19 0 36 542
377 395 391 382 158 321 352 247 210 251 350 609 603 771 768 447 329 480 300 120 112 131 90 29 31 199 181 0 0 0 0 354
264 381 372 298 173 238 216 268 253 308 335 360 210 361 591 539 541 401 425 159 183 94 133 144 140 153 213 91 3 91 497 345
133 292 355 321 267 215 140 148 200 147 156 258 87 85 220 235 297 430 396 162 186 222 184 176 153 110 179 100 15 171 325 547
96 204 338 251 324 233 191 143 162 114 126 130 25 0 9 28 118 156 199 145 83 107 119 100 70 69 80 53 5 14 375 684
76 124 254 293 357 314 227 168 146 127 90 54 52 0 0 0 6 55 122 100 30 17 13 22 25 18 60 18 1 0 318 734
17 63 113 219 284 376 290 199 133 80 77 84 35 0 0 0 0 0 24 38 45 12 10 5 4 9 10 2 0 0 6 560
0 11 67 116 154 234 175 142 123 89 60 58 35 0 0 0 0 0 0 16 10 0 0 0 0 0 0 0 0 0 0 144
89 35 58 102 135 147 148 128 98 78 55 29 40 4 0 0 0 0 0 0 0 2 0 0 0 0 0 0 0 0 0 0
304 177 77 58 93 109 93 94 84 72 51 31 21 19 0 0 0 0 0 0 0 0 0 0 0 0 0 0 0 0 0 77
606 368 369 91 94 92 78 116 75 74 49 39 25 20 1 0 0 0 0 0 0 0 0 0 0 0 0 0 0 0 2 73
772 792 533 205 183 111 105 103 108 110 103 54 43 19 30 0 0 0 0 0 0 0 0 0 0 15 14 21 40 234 58 157
450 1003 936 417 325 256 271 241 215 179 189 148 109 57 29 16 0 5 0 0 0 0 0 4 0 11 14 71 103 142 345 92
0 364 967 666 504 246 281 321 250 191 125 144 145 165 102 15 42 7 13 7 6 10 16 19 4 24 10 31 197 127 253 504
0 0 336 688 634 569 405 477 600 571 562 124 132 158 240 151 75 60 56 49 54 65 195 330 130 76 133 187 62 68 164 154
0 0 5 498 648 708 613 570 690 740 655 450 290 208 284 232 164 169 158 164 238 299 435 609 642 460 411 458 275 121 97 179
0 0 38 565 829 739 755 638 787 908 848 976 585 488 404 404 392 425 444 537 619 739 856 926 846 715 588 459 451 521 242 271
0 0 0 391 845 867 833 810 762 824 1003 1113 926 883 681 640 724 754 802 829 934 1007 1120 1127 786 611 571 569 425 418 380 378

GFSFLT2_con_mucape_228.txt.gz
CAPE
175 279 425 335 443 408 451 597 770 899 1020 1152 1125 864 883 1210 1245 1079 1111 1045 866 713 616 550 446 160 0 0 2 43 748 397
344 258 315 371 496 181 243 387 582 741 823 937 736 499 713 946 985 943 838 749 569 522 433 370 280 56 0 11 11 28 936 789
653 461 361 449 302 224 92 210 385 530 629 691 579 123 295 694 477 630 521 292 294 307 228 174 113 3 0 4 0 73 483 948
826 750 536 565 213 285 143 106 228 341 444 704 362 179 111 27 171 434 240 97 130 144 91 19 36 414 182 0 82 11 305 610
800 867 749 628 270 371 144 79 53 90 167 486 231 355 322 122 179 385 298 106 137 117 165 212 277 385 354 220 85 27 169 629
668 725 871 742 348 343 258 154 78 75 102 335 144 305 348 145 74 65 159 77 70 113 145 191 290 354 334 354 197 46 45 556
398 549 865 882 614 419 399 301 189 66 98 231 42 10 17 38 65 57 89 93 87 121 113 171 224 209 189 289 241 64 218 423
249 364 773 864 894 714 575 479 328 196 56 63 154 0 0 0 2 58 76 46 68 95 90 132 176 125 186 317 295 79 53 513
221 343 583 842 918 955 795 556 431 283 111 103 161 21 0 0 0 0 0 0 45 25 52 70 69 72 102 151 244 145 17 182
178 151 418 842 830 906 847 665 601 407 196 150 197 70 0 0 0 0 0 0 32 0 0 0 6 0 9 13 20 14 0 0
82 317 288 670 779 792 866 771 688 479 274 172 282 186 16 0 0 0 0 0 0 8 0 0 0 0 0 0 0 0 0 0
293 348 390 513 484 642 614 606 629 491 355 236 243 312 148 46 0 0 0 0 0 0 0 5 5 0 0 0 0 0 0 0
881 853 774 582 520 481 453 579 499 416 310 294 277 343 323 181 41 16 15 0 0 2 5 2 0 0 0 0 0 7 183 37
1160 1266 1266 1188 894 900 617 523 465 445 401 362 463 374 568 416 306 104 33 1 4 36 28 6 0 0 0 0 0 115 443 281
850 1171 1529 1512 1157 1110 830 779 737 661 571 601 754 425 644 736 353 388 429 138 47 155 120 71 0 2 40 0 26 117 175 675
0 542 1081 1637 1433 1171 1221 1232 983 1108 940 788 734 570 470 516 754 498 762 307 322 238 128 284 133 12 73 108 407 136 462 427
0 26 317 1326 1582 1455 1543 1298 1545 1239 1067 1019 981 833 622 439 588 560 873 750 642 745 576 507 128 168 91 167 167 190 583 509
0 0 0 566 1425 1486 1938 1955 1732 1322 1582 1393 1042 796 674 679 533 680 917 662 583 495 739 477 330 317 269 458 366 355 374 588
0 0 0 23 1310 1500 1776 2133 1874 1694 1757 1504 1130 911 803 679 735 801 796 721 600 479 495 530 766 844 958 733 806 733 994 558
0 0 0 0 161 1305 1505 1302 1208 1280 1480 1293 1259 1138 1143 1111 910 719 652 653 598 614 968 979 1232 1427 1175 1250 1064 1050 1333 1086

GFSFLT2_con_mucape_231.txt.gz
CAPE
70 55 270 358 464 453 485 559 672 845 960 1058 1076 871 910 1138 1172 1278 1361 1203 976 740 653 471 324 99 0 0 0 13 253 114
315 145 69 120 346 223 266 389 495 660 789 856 643 534 791 1026 836 894 984 864 661 527 407 284 139 0 0 0 0 0 560 200
531 399 262 241 38 151 135 239 372 501 624 673 398 40 183 673 155 509 606 401 334 301 202 132 73 0 0 0 0 81 568 609
635 613 430 429 76 117 73 76 221 289 265 595 200 12 8 47 85 289 313 154 143 151 129 85 39 335 99 0 32 158 322 456
715 771 1070 645 212 184 0 0 0 80 177 459 295 159 102 5 206 392 46 86 165 96 132 193 278 440 322 298 116 164 118 278
677 777 868 1258 399 330 3 0 10 11 29 882 656 217 384 75 19 82 21 0 42 156 197 257 313 417 444 406 452 341 22 78
684 736 1178 1019 1485 468 397 308 53 34 38 354 204 144 833 315 95 27 68 18 8 87 91 110 155 292 408 446 460 193 64 79
755 684 1421 1072 1234 1621 1054 964 428 87 95 97 627 101 530 140 142 32 0 16 22 35 109 83 186 247 360 305 275 194 57 98
985 1285 1523 1637 1711 1612 1101 705 518 423 164 966 805 345 631 280 35 113 68 164 653 355 541 204 108 200 276 312 242 422 216 81
515 467 1059 1730 1607 1544 1092 736 901 477 426 374 928 624 309 394 0 93 21 108 94 155 154 61 146 99 265 60 101 194 362 344
328 997 943 1628 1699 1302 1391 1513 976 650 658 347 963 805 480 348 33 33 404 40 171 231 179 216 53 21 5 6 31 0 53 0
266 1053 1174 1607 1296 1459 1024 901 1221 939 880 743 968 904 831 644 115 187 233 19 43 102 272 173 89 21 0 0 29 21 14 0
316 942 1407 1189 1158 1312 1240 1382 1415 1294 895 1099 1103 1087 1154 940 482 361 417 110 133 341 429 412 150 161 16 16 0 113 81 0
811 895 1484 1360 1193 1193 1140 1125 1281 1075 1224 1266 1234 1218 1377 1151 880 441 308 153 424 509 414 207 175 211 60 51 32 132 170 286
888 1529 1797 1648 1467 1418 1308 1294 1393 1128 1312 1352 1334 1301 1349 1433 1213 963 679 440 388 611 668 585 275 323 436 103 46 62 234 717
987 1312 1756 2267 2261 1780 1751 1495 1436 1434 1565 1480 1542 1525 1442 1432 1487 1358 1249 876 635 804 677 750 696 414 551 308 505 479 151 397
136 181 772 1799 2513 2436 2294 2177 1971 1922 1883 1966 1898 1895 1606 1473 1567 1551 1437 1397 1147 924 940 1009 925 682 533 696 821 765 881 519
96 166 15 213 2034 2820 2579 2627 2366 2082 2198 2045 2056 1927 2011 1717 1566 1642 1630 1522 1514 1368 1222 1462 1176 1086 914 926 740 867 792 833
1 4 16 27 686 2420 2844 2647 2775 2499 2466 2325 2291 2100 2011 2036 1854 1748 1696 1733 1666 1520 1596 1454 1583 1231 1360 1122 1111 1237 1184 769
0 0 0 21 197 1300 2701 2741 2484 2676 2379 2350 2350 2197 2157 2226 2043 1917 1879 1726 1719 1697 1527 1593 1576 1644 1541 1518 1468 1491 1344 1402

GFSFLT2_con_mucape_234.txt.gz
CAPE
314 736 733 641 632 512 397 463 600 682 740 902 877 692 750 1036 1209 1273 1247 1040 733 648 433 314 80 0 0 0 0 3 26 212
204 467 765 758 427 247 232 297 401 492 534 590 446 410 640 778 793 999 977 805 522 528 304 180 44 0 0 0 0 1 315 309
325 208 302 601 547 255 149 225 254 380 444 389 172 64 334 431 311 572 614 379 234 265 168 78 8 0 0 0 0 50 206 406
465 341 158 193 5 167 288 269 310 364 349 391 65 1 0 84 6 231 307 144 80 73 46 8 7 0 0 0 0 4 107 338
639 637 434 199 0 101 73 74 71 142 146 379 69 1 0 0 58 6 101 34 13 1 0 0 4 50 207 21 0 16 13 37
664 760 619 465 260 79 0 12 0 35 134 498 27 226 58 0 211 106 0 0 18 11 32 29 74 299 374 691 491 323 192 116
670 653 770 708 840 223 0 0 0 0 73 398 162 97 366 10 0 58 0 0 0 41 22 160 191 217 393 448 445 554 214 16
835 713 936 896 881 547 108 57 0 14 0 113 437 101 428 212 99 94 0 0 0 0 5 6 85 89 162 335 276 196 132 14
867 934 1129 1031 949 1337 482 375 132 18 26 165 218 256 457 203 133 73 4 0 52 0 0 41 124 95 173 172 85 126 153 166
973 861 1216 1184 1010 1015 763 595 395 83 131 98 283 73 187 237 86 46 74 105 2 151 53 53 64 94 106 85 106 92 121 97
1026 901 1180 1216 1347 1092 1133 748 772 582 230 191 501 180 71 150 0 8 57 40 61 25 60 52 23 45 0 48 25 0 28 55
896 889 1060 1333 1343 1199 1090 1012 957 605 659 304 429 337 144 72 53 4 63 5 24 52 37 44 31 27 2 0 0 0 0 0
731 872 849 1280 1235 1284 1153 972 979 861 666 711 363 306 310 156 71 51 77 23 6 22 94 107 59 21 23 3 0 37 0 0
522 838 828 1092 1250 1225 1044 1066 926 982 823 728 696 565 445 275 155 70 42 36 23 65 46 67 63 97 4 6 0 0 0 2
410 871 933 846 1108 1145 1149 989 1105 1071 991 777 776 651 658 501 277 191 55 21 21 36 106 61 32 37 89 23 18 0 36 53
526 565 1080 988 883 958 1048 930 827 966 828 882 628 777 606 687 618 378 201 89 13 19 59 127 42 56 65 66 25 63 95 115
1300 1100 1028 1116 1052 939 957 983 938 840 880 884 943 829 713 689 784 740 473 300 180 25 67 82 127 42 61 98 80 78 61 109
21 178 600 1413 1378 1171 1116 1079 1039 1013 1030 1046 986 1063 956 766 821 782 839 597 391 335 190 172 132 182 81 51 221 135 209 254
0 0 0 73 1378 1846 1522 1408 1546 1405 1268 1353 1240 1224 1183 1095 912 926 927 965 766 588 502 352 348 244 389 250 208 190 388 432
0 0 0 0 0 88 1835 2013 1676 1780 1646 1478 1571 1417 1470 1456 1273 1095 1096 1046 1036 848 822 656 429 754 448 541 519 417 413 535

GFSFLT2_con_mucape_237.txt.gz
CAPE
495 667 653 652 612 499 435 420 478 542 590 718 710 582 690 947 1078 1076 937 683 412 216 127 31 0 0 0 0 0 0 0 24
384 519 527 460 363 293 245 276 319 339 376 370 270 303 492 688 775 854 695 411 258 161 59 12 0 0 0 0 0 4 82 63
358 414 407 332 258 142 112 151 185 206 251 197 110 96 264 451 483 601 479 198 114 103 44 7 0 0 0 0 14 112 217 220
170 324 370 296 273 101 43 98 94 98 100 61 3 7 44 128 176 357 292 108 18 44 13 0 0 0 0 0 2 0 47 187
34 90 287 264 145 29 17 32 29 63 70 1 0 0 0 0 0 84 107 38 2 0 0 0 0 0 0 22 8 0 1 83
63 9 60 54 1 0 0 0 0 4 14 3 0 0 0 0 0 0 0 0 0 0 0 0 0 0 31 129 117 26 53 34
190 71 28 0 0 0 0 0 0 0 6 45 0 0 0 0 0 0 0 0 0 0 0 0 0 0 11 83 126 127 128 60
326 254 124 17 54 0 0 0 0 0 0 12 24 0 4 0 0 0 0 0 0 0 0 0 0 0 0 25 101 60 57 47
486 437 296 216 248 65 0 0 0 0 0 14 76 0 0 9 0 0 0 0 0 0 0 0 0 0 7 0 3 7 8 15
553 476 470 380 273 298 99 35 0 0 0 0 71 43 8 44 15 0 0 0 0 0 0 0 0 0 0 0 0 0 0 0
558 508 623 562 410 695 439 164 27 0 2 0 42 53 31 52 90 47 0 2 0 0 0 0 0 7 9 12 15 15 15 0
550 584 758 691 598 507 883 493 188 98 55 36 46 57 22 46 88 63 56 24 27 13 20 17 8 8 22 17 6 9 14 16
621 567 819 809 836 595 571 915 499 370 269 225 83 80 48 5 23 57 19 21 19 26 39 30 36 38 20 34 25 10 0 0
697 571 737 944 841 908 570 589 806 604 611 428 366 199 140 42 4 22 40 2 9 0 8 26 29 18 18 18 7 2 5 0
668 692 648 962 929 937 889 705 721 817 770 757 472 499 334 180 63 24 20 22 3 5 0 0 5 32 34 6 1 0 0 0
519 613 604 865 1044 848 955 810 801 792 685 735 655 545 551 381 187 110 47 19 10 0 0 0 0 0 20 31 8 6 13 74
351 484 521 615 892 919 889 858 749 771 775 710 800 670 644 527 384 303 215 98 28 4 0 0 0 0 0 0 3 1 0 0
294 407 523 516 637 817 818 816 815 710 726 843 817 852 768 695 588 491 390 304 192 67 10 0 0 4 0 0 1 3 16 11
276 447 548 609 526 638 705 718 773 693 647 677 830 787 783 831 728 631 569 515 413 295 188 57 17 6 15 5 0 37 36 33
732 513 505 728 717 625 612 667 607 618 634 674 709 739 800 863 834 732 669 648 659 554 465 367 240 147 61 43 22 1 5 173